Location: Windsor
(43.2292°N, 89.3015°W)
Time: 07:22:27
(UTC+00:00)

RS-44 - Pass Details

Date: 05 July 2022
Orbit: 1175 x 1510 km, 82.5° (Epoch: 14 August)

Event Time Altitude Azimuth Distance (km) Brightness Sun altitude
Rises 04:16:05 0° 249° (WSW) 4,436 ? -19.6°
Reaches altitude 10° 04:20:32 10° 271° (W) 3,530 ? -20.0°
Maximum altitude 04:25:07 15° 305° (NW) 3,188 ? -20.3°
Drops below altitude 10° 04:29:50 10° 338° (NNW) 3,640 ? -20.7°
Sets 04:34:37 0° 360° (N) 4,653 ? -21.0°
